Probability
0 0 0 0 0 0 0 0 0 0 0 0 0 0 0 0 0 0 0 0 0 0 0 0 0 0 0 0 0 0 0 0 0 0 1 1 0 0 0 0 0 0 0
0 0 0 0 0 0 0 0 0 0 0 0 0 0 0 0 0 0 0 0 0 0 0 0 0 0 0 0 0 0 0 0 0 1 2 2 1 0 0 0 0 0 0
0 0 0 0 0 0 0 0 0 0 0 0 0 1 1 1 0 0 0 0 0 0 0 0 0 0 0 0 0 0 0 0 0 1 2 3 2 1 0 0 0 0 0
0 0 0 0 0 0 0 0 0 0 0 0 0 1 2 1 0 0 0 0 0 0 0 0 0 0 0 0 0 0 0 0 0 1 1 2 1 1 0 0 0 0 0
0 0 0 0 0 0 0 0 0 0 0 0 0 1 2 1 0 0 0 0 0 0 0 0 0 0 0 0 0 0 0 0 0 0 0 0 0 0 0 0 0 0 0
0 0 0 0 0 0 0 0 0 0 0 0 0 1 2 2 0 0 0 0 0 0 0 0 0 0 0 0 0 0 0 0 0 0 0 0 0 0 0 0 0 0 0
0 0 0 0 0 0 0 0 0 0 0 0 1 2 2 1 0 0 0 0 0 0 0 0 0 0 0 0 0 0 0 0 0 0 0 0 0 0 0 0 0 0 0
0 0 0 0 0 0 0 0 0 0 0 0 1 2 2 1 0 0 0 0 0 0 0 0 0 0 0 0 0 0 0 0 0 0 0 0 0 0 0 0 0 0 0
0 0 0 0 0 0 0 0 0 0 0 0 0 1 1 0 0 0 0 0 0 0 0 0 0 0 0 0 0 0 0 0 0 0 0 0 0 0 0 0 0 0 0
0 0 0 0 0 0 0 0 0 0 0 0 0 0 0 0 0 0 0 0 0 0 0 0 0 0 0 0 0 0 0 0 0 0 0 0 0 0 0 0 0 0 0
0 0 0 0 0 0 0 0 0 0 0 0 0 0 0 0 0 0 0 0 0 0 0 0 0 0 0 0 0 0 0 0 0 0 0 0 0 0 0 0 0 0 0
0 0 0 0 0 0 0 0 0 0 0 0 0 0 0 0 0 0 0 0 0 0 0 0 0 0 0 0 0 0 0 0 0 0 0 0 0 0 0 0 0 0 0
0 0 0 0 0 0 0 0 0 0 0 0 0 0 0 0 0 0 0 0 0 0 0 0 0 0 0 0 0 0 0 0 0 0 0 0 0 0 0 0 0 0 0
0 0 0 0 0 0 0 0 0 0 0 0 0 0 0 0 0 0 0 0 0 0 0 0 0 0 0 0 0 0 0 0 0 0 0 0 0 0 0 0 0 0 0
0 0 0 0 0 0 0 0 0 0 0 0 0 0 0 0 0 0 0 0 0 0 0 0 0 0 0 0 0 0 0 0 0 0 0 0 0 0 0 0 0 0 0
0 0 0 0 0 0 0 0 0 0 0 0 0 0 0 0 0 0 0 0 0 0 0 0 0 0 0 0 0 0 0 0 0 0 0 0 0 0 0 0 0 0 0
0 0 0 0 0 0 0 0 0 0 0 0 0 0 0 0 0 0 0 0 0 0 0 0 0 0 0 0 0 0 0 0 0 0 0 0 0 0 0 0 0 0 0
0 0 0 0 0 0 0 0 0 0 0 0 0 0 0 0 0 0 0 0 0 0 0 0 0 0 0 0 0 0 0 0 0 0 0 0 0 0 0 0 0 0 0
0 0 0 0 0 0 0 0 0 0 0 0 0 0 0 0 0 0 0 0 0 0 0 0 0 0 0 0 0 0 0 0 0 0 0 0 0 0 0 0 0 0 0
0 0 0 0 0 0 0 0 0 0 0 0 0 0 0 0 0 0 0 0 0 0 0 0 0 0 0 0 0 0 0 0 0 0 0 0 0 0 0 0 0 0 0
0 0 0 0 0 0 0 0 0 0 0 0 0 0 0 0 0 0 0 0 0 0 0 0 0 0 0 0 0 0 0 0 0 0 0 0 0 0 0 0 0 0 0
0 0 0 0 0 0 0 0 0 0 0 0 0 0 0 0 0 0 0 0 0 0 0 0 0 0 0 0 0 0 0 0 0 0 0 0 0 0 0 0 0 0 0
0 0 0 0 0 0 0 0 0 0 0 0 0 0 0 0 0 0 0 0 0 0 0 0 0 0 0 0 0 0 0 0 0 0 0 0 0 0 0 0 0 0 0
0 0 0 0 0 0 0 0 0 0 0 0 0 0 0 0 0 0 0 0 0 0 0 0 0 0 0 0 0 0 0 0 0 0 0 0 0 0 0 0 0 0 0
0 0 0 0 0 0 0 0 0 0 0 0 0 0 0 0 0 0 0 0 0 0 0 0 0 0 0 0 0 0 0 0 0 0 0 0 0 0 0 0 0 0 0
0 0 0 0 0 0 0 0 0 0 0 0 0 0 0 0 0 0 0 0 0 0 0 0 0 0 0 0 0 0 0 0 0 0 0 0 0 0 0 0 0 0 0
Wind_Speed
2 2 2 2 2 3 3 3 3 3 3 3 3 4 4 4 3 3 4 4 5 5 5 5 5 4 4 3 3 4 4 4 6 5 3 3 3 3 3 3 3 4 4
2 2 2 3 3 3 3 3 3 4 3 4 3 4 4 4 3 4 4 4 5 5 5 5 5 4 5 4 3 4 4 4 5 6 4 3 4 4 4 4 3 3 3
2 2 3 3 3 4 4 3 3 3 4 4 3 4 4 4 4 4 4 5 5 5 5 5 5 5 5 4 4 4 4 4 4 4 5 3 3 3 3 4 4 3 3
2 2 3 3 4 4 4 3 4 4 4 4 4 4 4 4 5 5 5 4 5 5 5 5 5 5 5 5 4 5 4 4 4 4 4 4 3 3 3 3 4 3 3
2 3 4 4 4 4 4 4 4 4 4 4 4 4 4 4 5 5 4 5 5 5 5 5 5 6 7 6 5 4 4 4 4 4 4 4 3 3 3 3 4 3 3
2 3 4 3 4 4 4 4 4 4 3 3 4 4 4 5 7 9 7 4 5 5 5 5 5 6 7 8 9 8 7 6 5 5 5 5 5 4 3 3 4 3 4
3 3 3 3 3 4 4 4 4 4 3 4 4 4 4 5 8 9 9 5 5 5 5 5 5 4 6 5 6 8 8 9 9 7 6 6 5 5 4 4 5 5 4
3 3 3 3 3 4 4 4 4 3 3 4 5 4 4 5 8 8 8 5 4 5 5 5 5 5 5 5 5 5 5 5 7 6 6 6 6 5 6 6 6 4 4
3 3 3 3 4 4 4 4 4 4 4 4 4 4 4 5 8 9 8 4 4 5 5 5 5 5 8 8 6 5 5 5 6 9 10 9 10 10 8 4 4 4 4
3 3 3 3 4 4 5 5 4 4 4 4 5 4 4 5 7 8 8 3 4 4 4 5 7 8 9 9 5 5 6 5 5 5 6 7 6 7 9 7 6 5 4
3 3 3 3 4 4 4 4 3 4 4 4 5 5 4 5 6 8 8 4 4 4 4 4 5 9 10 9 8 5 7 6 4 4 4 4 3 3 4 5 5 5 4
3 3 4 4 4 4 3 4 3 3 4 4 4 4 3 4 5 7 8 8 7 5 5 4 5 9 10 10 7 7 9 7 3 3 3 3 3 3 3 4 4 4 4
3 4 4 4 4 4 4 4 3 3 3 3 3 3 3 3 4 8 8 9 10 6 4 8 9 9 8 6 7 7 6 3 3 3 3 3 3 3 3 2 3 3 3
3 4 4 3 3 3 2 2 2 2 2 2 3 3 3 4 3 3 4 5 7 6 5 5 7 8 6 5 4 3 2 2 3 3 3 3 2 2 3 3 3 3 3
3 3 4 3 3 2 2 2 3 2 3 4 3 3 4 4 5 8 6 4 4 4 4 2 2 3 2 1 2 2 2 2 2 2 3 3 3 3 3 2 3 3 3
4 4 3 3 3 2 1 2 5 5 6 7 7 6 5 7 8 8 8 8 8 6 4 2 2 3 3 2 2 2 2 2 2 3 3 3 3 3 3 2 2 3 4
3 4 3 3 3 2 2 2 3 4 6 7 7 7 7 7 7 7 7 7 6 5 2 2 2 3 3 2 2 2 3 3 2 3 3 3 3 3 3 3 3 3 4
4 5 5 3 3 2 2 2 2 2 3 3 5 7 7 7 7 7 6 5 3 3 2 2 3 3 3 3 3 2 3 2 2 3 3 3 3 3 3 3 3 3 4
4 3 3 2 2 2 2 2 2 2 2 3 3 4 7 7 7 7 6 3 2 2 3 3 3 3 3 3 3 3 3 3 3 3 3 3 3 3 3 3 3 5 4
3 6 5 3 2 2 2 2 2 2 2 2 3 3 4 4 3 4 3 3 3 3 3 3 3 3 3 3 3 3 3 3 3 3 3 3 3 3 3 3 3 3 3
3 4 7 4 3 3 2 2 3 3 3 3 3 4 6 3 3 3 3 3 3 3 3 3 3 3 3 3 3 3 4 3 3 3 3 3 3 3 3 3 3 3 3
3 3 3 3 3 3 3 3 3 3 3 4 4 4 7 4 2 2 3 3 3 3 3 3 3 3 3 3 3 3 4 4 3 3 3 3 3 3 3 3 3 3 3
3 3 3 3 3 5 4 3 3 3 3 3 4 4 4 3 3 3 3 3 3 3 3 3 3 3 3 3 3 3 4 4 4 4 4 4 3 3 3 3 3 4 4
3 3 3 3 3 3 3 3 3 3 4 4 4 4 3 3 4 4 4 4 4 4 3 3 4 5 6 5 4 3 4 5 4 4 4 4 4 4 3 3 3 4 4
3 3 3 3 3 3 4 4 4 4 4 4 4 4 4 4 4 4 4 4 4 4 5 5 4 5 6 7 6 5 8 11 9 5 4 4 4 4 4 4 4 4 4
3 3 3 3 3 3 3 4 4 4 4 4 4 4 4 4 4 4 4 4 4 5 5 5 6 7 7 6 7 9 11 11 11 10 5 3 4 4 4 4 4 4 4
Wind_Direction
237 245 261 268 270 267 261 259 264 269 269 270 278 280 276 275 268 262 268 276 271 270 272 265 263 265 263 256 257 253 252 246 255 269 273 273 262 262 266 244 221 211 222
236 250 260 267 270 271 269 266 265 269 270 268 272 273 271 275 274 268 269 274 271 270 270 267 265 265 262 256 252 252 254 253 249 261 269 264 264 251 256 253 246 226 214
245 252 265 271 271 270 273 275 272 271 275 276 275 267 267 271 274 269 265 268 269 272 269 267 267 262 264 263 257 252 256 258 253 251 264 266 263 256 264 269 253 232 236
263 262 264 266 268 269 273 274 273 269 269 270 270 262 261 265 267 265 268 270 271 274 271 267 266 258 257 261 257 253 252 255 252 248 254 258 255 249 244 254 252 231 234
265 263 265 270 274 274 273 272 274 269 274 271 270 264 259 261 259 261 267 270 274 279 278 272 269 265 263 263 261 256 250 249 247 246 248 255 255 243 244 252 253 247 240
260 268 273 273 274 275 276 276 277 272 271 274 270 264 263 268 277 280 280 273 275 274 275 279 275 269 267 270 272 272 264 253 246 244 247 244 246 245 250 263 253 241 245
269 268 273 270 270 273 284 282 276 274 274 273 268 260 259 266 278 281 283 282 272 271 271 276 277 275 276 268 273 275 272 273 265 254 249 247 246 240 238 252 256 247 250
271 271 266 268 271 272 272 273 274 275 271 270 272 265 264 271 281 284 285 279 271 269 267 267 271 270 270 273 266 265 263 268 268 261 251 252 254 250 237 243 254 263 266
270 268 267 264 268 268 268 269 273 274 273 274 275 270 268 274 281 282 282 269 268 272 275 276 275 271 273 278 270 265 267 270 273 270 262 259 258 258 255 247 246 242 253
278 275 269 263 263 263 264 269 271 270 273 279 282 277 270 268 278 283 282 269 268 272 276 275 277 277 278 277 267 260 263 268 270 275 272 268 262 261 258 238 230 231 241
297 293 279 269 265 265 265 267 264 270 271 273 276 273 265 269 280 283 283 275 268 276 277 279 276 280 281 280 278 265 269 278 269 263 264 257 251 247 249 248 235 227 232
306 299 293 280 274 276 265 268 263 257 260 266 271 279 276 278 288 286 287 288 290 278 274 277 278 281 282 280 278 277 282 287 273 262 259 256 253 257 255 254 251 246 240
315 308 303 300 289 281 267 262 258 247 247 264 270 278 287 293 296 299 297 296 296 293 281 283 291 292 289 279 275 280 283 273 262 261 262 266 262 258 260 265 267 258 253
315 312 307 302 296 290 283 274 260 248 248 259 269 279 287 290 288 288 288 290 294 296 296 296 304 302 300 290 285 282 271 263 269 267 276 277 274 263 256 253 257 261 259
317 312 312 309 303 299 303 299 285 262 256 261 257 262 269 275 280 291 297 291 289 287 305 303 304 302 296 295 294 293 296 292 287 282 277 277 277 276 271 262 256 258 256
323 321 317 312 308 300 299 319 323 310 307 304 297 288 285 284 293 296 300 305 309 312 319 305 300 303 298 295 294 297 296 293 292 289 281 279 280 278 277 273 262 250 250
318 316 314 312 311 306 302 300 308 320 324 322 317 310 304 302 301 304 308 314 314 320 318 306 303 303 306 305 300 295 294 293 291 284 281 281 282 281 273 269 266 255 252
322 317 319 317 317 310 301 297 298 303 313 317 317 317 319 322 321 318 320 328 322 324 319 308 306 307 308 308 301 297 296 295 292 288 283 281 280 280 273 270 268 262 254
324 322 320 317 319 319 319 316 309 306 305 307 314 319 322 325 329 332 336 333 317 314 315 313 309 306 307 307 305 297 290 287 288 290 286 282 277 274 274 272 271 278 272
322 324 330 329 328 332 331 328 324 319 314 316 316 317 320 325 330 331 333 327 320 318 319 316 313 308 306 302 302 299 295 293 292 287 287 286 281 280 279 276 273 269 266
325 326 329 332 333 330 324 325 325 325 323 321 318 315 318 325 323 322 322 321 318 318 319 316 312 308 306 306 302 302 297 290 287 286 287 288 291 287 282 279 277 274 274
325 328 328 326 330 333 332 331 330 329 329 324 321 321 320 329 329 325 324 322 322 320 318 315 309 306 304 302 300 298 294 286 285 285 286 289 290 286 281 275 273 272 267
325 325 325 328 332 330 335 339 336 334 330 328 325 325 328 330 330 331 329 324 324 322 321 316 309 307 308 307 303 296 290 285 282 282 286 289 288 283 279 275 271 272 270
322 324 329 335 337 335 332 332 332 328 324 322 323 326 328 328 326 325 323 322 323 320 319 316 308 304 304 306 302 294 287 287 285 275 269 268 271 273 271 272 272 269 266
327 327 331 334 330 326 325 323 323 322 321 321 323 324 325 324 322 321 319 318 317 316 315 312 307 307 307 302 297 292 292 295 293 287 267 259 258 259 260 262 263 267 265
326 328 329 329 326 323 320 317 317 317 316 316 319 320 319 317 315 314 313 312 313 312 309 306 301 301 301 299 293 294 298 299 296 293 285 261 254 256 256 256 258 259 259